Location: Churchill Northern Studies Centre
(58.7378°N, 93.8201°W)
Time: 19:39:39
(UTC-06:00)

Vanguard 2 - Visible Passes

Search period start: 20 February 2018 00:00
Search period end: 02 March 2018 00:00
Orbit: 553 x 2939 km, 32.9° (Epoch: 19 February)

Date Brightness Start Highest point End Pass type
(mag) Time Alt. Az. Time Alt. Az. Time Alt. Az.
24 Feb 10.8 18:05:49 10° SSW 18:09:20 12° S 18:12:24 10° SSE visible
25 Feb 10.8 18:22:54 10° SW 18:26:44 12° SSW 18:30:03 10° S visible
26 Feb 10.9 18:40:27 10° SW 18:44:05 12° SSW 18:47:16 10° S visible
27 Feb 10.9 18:58:31 10° SW 19:01:23 11° SSW 19:03:58 10° S visible
